Date,TemperatureHighF,TemperatureAvgF,TemperatureLowF,DewpointHighF,DewpointAvgF,DewpointLowF,HumidityHigh,HumidityAvg,HumidityLow,PressureMaxIn,PressureMinIn,WindSpeedMaxMPH,WindSpeedAvgMPH,GustSpeedMaxMPH,PrecipitationSumIn
2013-1-1,62.1,51.8,45.1,52.7,50.2,44.9,100,95,68,30.21,30.12,16,7,17,0.00
2013-1-2,64.0,51.2,43.0,61.1,49.0,42.7,99,93,62,30.38,30.20,11,2,11,0.00
2013-1-3,62.4,52.2,44.2,57.9,49.6,38.5,100,91,62,30.47,30.38,12,3,13,0.00
2013-1-4,67.3,53.0,45.1,45.1,40.8,38.3,82,64,37,30.40,30.11,14,5,14,0.00
2013-1-5,59.7,52.2,46.9,42.2,39.2,36.6,81,61,46,30.11,29.83,21,7,22,0.00
2013-1-6,50.7,45.5,41.0,44.1,40.7,35.6,100,84,66,29.96,29.76,43,11,43,0.11
2013-1-7,52.2,44.4,38.8,36.3,31.8,24.6,80,62,46,30.05,29.89,27,11,30,0.00
2013-1-8,41.7,36.0,32.4,36.1,31.4,24.3,100,84,50,30.23,30.04,22,10,27,0.01
2013-1-9,52.2,39.6,33.8,36.4,31.1,25.8,91,72,50,30.26,30.19,27,6,30,0.00
2013-1-10,58.6,45.0,35.8,41.4,34.9,27.1,91,70,40,30.21,30.07,14,3,15,0.00
2013-1-11,67.5,55.3,46.2,58.5,51.6,40.7,100,88,66,30.08,29.49,19,6,19,0.09
2013-1-12,62.2,53.2,46.0,54.2,48.3,41.7,100,84,65,29.72,29.48,17,6,21,0.00
2013-1-13,62.6,49.4,41.2,52.0,45.9,40.9,100,89,60,29.91,29.71,10,2,11,0.00
2013-1-14,59.4,50.7,44.4,56.5,50.2,44.2,100,98,87,29.96,29.90,13,2,13,0.00
2013-1-15,63.0,53.9,46.6,62.7,52.3,46.3,100,95,77,29.95,29.71,21,5,21,0.01
2013-1-16,61.2,56.5,47.8,57.9,55.4,47.6,100,96,81,29.71,29.55,34,18,34,0.37
2013-1-17,61.7,54.9,46.0,57.6,51.1,45.0,100,87,71,29.85,29.73,36,10,36,0.01
2013-1-18,57.4,52.7,45.3,56.9,51.7,43.3,100,97,74,29.73,29.52,32,13,32,0.38
2013-1-19,57.9,50.0,43.7,48.4,44.3,41.5,100,82,59,29.92,29.58,39,11,39,0.01
2013-1-20,70.2,55.8,46.9,62.8,51.9,44.2,100,88,61,30.02,29.90,12,5,12,0.00
2013-1-21,66.2,57.6,50.9,60.2,55.4,50.6,100,93,66,29.99,29.73,21,6,21,0.00
2013-1-22,67.8,58.2,52.0,57.6,52.1,47.1,100,81,56,29.87,29.73,20,8,20,0.00
2013-1-23,61.3,55.3,50.9,52.2,47.1,43.6,93,75,57,30.02,29.86,23,7,23,0.00
2013-1-24,64.2,55.5,47.8,59.8,52.9,47.6,100,92,71,30.02,29.65,36,11,36,0.33
2013-1-31,62.2,52.2,44.2,48.5,42.2,34.4,82,69,53,30.08,29.89,24,8,24,0.00